Regional Weather Roundup
Issued by NWS

Home | Current Version | Previous Version | Text Only | Print | Product List | Glossary On
Versions: 1 2 3 4 5 6 7 8 9 10 11 12 13 14 15 16 17 18 19 20 21 22 23 24 25 26 27 28 29 30 31 32 33 34 35 36 37 38 39 40 41 42 43 44 45 46 47 48 49 50
000
ASUS45 KTFX 291619
RWRMT
MONTANA HOURLY WEATHER ROUNDUP
NATIONAL WEATHER SERVICE GREAT FALLS MT
1019 AM MDT FRI AUG 29 2014

NOTE: "FAIR" INDICATES FEW OR NO CLOUDS BELOW 12000 FEET WITH NO
SIGNIFICANT WEATHER AND/OR OBSTRUCTIONS TO VISIBILITY.

* THESE STATIONS ARE NOT UNDER NWS QUALITY CONTROL. THEY DO NOT
   REPORT WEATHER SUCH AS PRECIPITATION OR FOG.

MTZ001>007-043-291700-
WEST OF THE DIVIDE
CITY           SKY/WX    TMP DP  RH WIND       PRES   REMARKS
KALISPELL      SUNNY     63  48  58 CALM      30.00F
MISSOULA       SUNNY     61  45  56 CALM      30.05F
BUTTE          SUNNY     59  41  51 N3        30.14F
MULLAN PASS    PTCLDY    57  39  51 VRB5      30.11S
* LINCOLN      N/A       48  46  93 W3         N/A
* LOOKOUT PASS N/A       57  44  62 E2         N/A
* POLSON       N/A       61  53  75 S2         N/A
* RONAN APT    SUNNY     66  50  56 N/A        N/A
* SEELEY LAKE  N/A       57  45  64 W2         N/A
* THOMP F APT  PTCLDY    64  45  50 N/A        N/A
$$

MTZ008-052>055-291700-
SOUTHWEST MONTANA
CITY           SKY/WX    TMP DP  RH WIND       PRES   REMARKS
BOZEMAN        SUNNY     61  50  67 CALM      30.11F
DILLON         SUNNY     61  46  58 VRB3      30.12F
W YELLOWSTONE  SUNNY     55  46  72 CALM      30.23S
* THREE FORKS  SUNNY     61  36  39 N/A        N/A
* BOULDER HILL N/A       55  37  51 SW8        N/A
* MONIDA PASS  N/A       52  49  90 N4         N/A
* RAYNOLDS PAS N/A       57  42  57 S9         N/A
* WHITEHALL    N/A       62  49  63 W2         N/A
* WISE RIVER   N/A       51  42  71 NW4        N/A
$$

MTZ009>010-012-014-046-048-049-054-291700-
EAST SLOPES AND CENTRAL MONTANA
CITY           SKY/WX    TMP DP  RH WIND       PRES   REMARKS
CUT BANK       FOG       50  48  93 S10       30.04F
GREAT FALLS    SUNNY     59  50  72 E9        30.04F
HELENA         SUNNY     61  48  62 CALM      30.08F
MALMSTROM AFB  SUNNY     59  50  72 E8        30.06F
* CONRAD       SUNNY     57  55  93 E9         N/A
* EAST GLACIER N/A       56  49  77 SW5        N/A
* MONARCH      N/A       59  40  50 SE5        N/A
* PENDROY      N/A       56  49  77 S10        N/A
* ROGERS PASS  N/A       57  42  57 SE11       N/A
* SAINT MARY   N/A       50  50 100 W3         N/A
* SWEET GRASS  N/A       52  52 100 S17        N/A
* WHITE SULPH  N/A       55  49  80 NE6        N/A
$$

MTZ011-013-016-021-035-040-045-047-050-051-291700-
NORTH CENTRAL MONTANA
CITY           SKY/WX    TMP DP  RH WIND       PRES   REMARKS
HAVRE          SUNNY     61  50  67 VRB3      30.06F
LEWISTOWN      SUNNY     61  48  62 CALM      30.09F
* CHINOOK      SUNNY     61  52  72 E3        30.07S
* FORT BENTON  SUNNY     59  48  67 E8        30.06F
* CHESTER      N/A       59  49  70 SE6G11     N/A
* DENTON       N/A       59  48  67 NE3        N/A
* GEYSER       N/A       54  50  86 SE7        N/A
* JUDITH GAP   N/A       60  45  58 S8         N/A
* LOMA         N/A       58  51  78 E7G12      N/A
$$

MTZ017>020-022>027-061-062-291700-
NORTHEAST MONTANA
CITY           SKY/WX    TMP DP  RH WIND       PRES   REMARKS
GLASGOW        CLOUDY    61  54  78 N8        30.05S
GLENDIVE       CLOUDY    61  55  81 NW13      30.04R
JORDAN         SUNNY     61  52  72 N3        30.06S
SIDNEY         PTSUNNY   64  57  78 N10       30.00S
WOLF POINT     CLOUDY    63  54  73 N12       30.03R
* BEAVER HILL  N/A       59  56  90 NW11G16    N/A
* CIRCLE       N/A       61  55  81 N7G12      N/A
* LINDSAY DVD  N/A       56  54  93 NW14       N/A
* NAVAJO       N/A       60  53  78 N12        N/A
$$

MTZ028>042-056>058-291700-
SOUTHCENTRAL AND SOUTHEAST MONTANA
CITY           SKY/WX    TMP DP  RH WIND       PRES   REMARKS
BAKER          CLOUDY    63  55  75 NW16      30.03R
BILLINGS       SUNNY     63  52  68 CALM      30.10F
LIVINGSTON     SUNNY     61  50  67 SE3       30.11F
MILES CITY     CLOUDY    61  54  78 N13       30.06R
* LAUREL APT   SUNNY     64  48  56 N/A        N/A
* ROUNDUP APT  SUNNY     63  48  58 N/A        N/A
* ALZADA       N/A       61  56  84 W4         N/A
* HYSHAM       N/A       61  48  62 NE4G9      N/A
* LAME DEER    N/A       57  54  90 N6G12      N/A
* REED POINT   N/A       67  51  57 NE3        N/A
* ROSCOE HILL  N/A       56  45  67 NE2        N/A
$$

REGIONAL REPORTS...DAKOTAS
CITY           SKY/WX    TMP DP  RH WIND       PRES   REMARKS
WILLISTON      CLOUDY    64  55  73 N15       29.97R
DICKINSON      CLOUDY    64  57  78 NW20      29.94R
BEACH          N/A       59  59 100 NW13      30.01S
CROSBY         PTCLDY    64  55  73 N12       29.99R
TIOGA          CLOUDY    63  59  87 N15       29.99R
WATFORD CITY   CLOUDY    63  57  81 N13       29.95R
BISMARCK       PTCLDY    75  61  62 NW16G24   29.86R
GRAND FORKS    CLOUDY    66  64  93 S5        29.76R
FARGO          CLOUDY    70  64  81 CALM      29.76F
BUFFALO SD     CLOUDY    66  52  61 NW28G35   29.92F
RAPID CITY     SUNNY     70  54  57 N24G30    29.99R
$$

REGIONAL REPORTS...WYOMING/IDAHO/WASHINGTON
CITY           SKY/WX    TMP DP  RH WIND       PRES   REMARKS
GILLETTE       PTCLDY    66  54  65 N16G22    30.09S
SHERIDAN       CLOUDY    63  54  73 NW15      30.11S
CODY           SUNNY     61  52  72 SE3       30.14F
YELLOWSTONE LA SUNNY     54  46  74 CALM      30.31S
SALMON         SUNNY     63  46  54 N3        30.07F
MULLAN PASS    PTCLDY    57  39  51 VRB5      30.11S
SAND POINT     PTCLDY    61  52  72 CALM      29.97S
SPOKANE        PTCLDY    64  45  50 CALM      29.95F
$$

REGIONAL REPORTS...ALBERTA
CITY           SKY/WX    TMP DP  RH WIND       PRES   REMARKS
LETHBRIDGE     PTSUNNY   55  50  83 S7        29.98F
MEDICINE HAT   PTCLDY    59  50  72 E7        30.02F
EDMONTON       CLOUDY    59  45  60 S17G24    29.88F
WATERTON GATE  N/A       61  50  67 S3         N/A
CARDSTON       N/A       57  54  90 SE5        N/A
MILK RIVER     N/A       55  50  83 S17G23     N/A
$$

REGIONAL REPORTS...SASKATCHEWAN
CITY           SKY/WX    TMP DP  RH WIND       PRES   REMARKS
SWIFT CURRENT  PTCLDY    55  50  83 W5        30.05S
MOOSE JAW      SUNNY     59  54  84 CALM      30.04S
REGINA         N/A       61  54  78 NW6       30.02S
VAL MARIE      N/A       57  52  83 N7         N/A
ASSINIBOIA     N/A       57  52  83 NW2        N/A
CORONACH       N/A       61  54  78 N10        N/A

$$




USA.gov is the U.S. government's official web portal to all federal, state and local government web resources and services.